ARIANE 2 DEB, 26729

Orbit data source: Space-Track

ARIANE 2 DEB, 26729 is space debris in HEO originally from a launch on Fri, 27 Jan 1989 UTC launched from the French Guiana (FRGUI). Debris objects in space refer to the collection of defunct objects orbiting the Earth. Examples of debris include non-operational satellites, rocket bodies, and fragments generated from explosions, collisions, or faulty payload assembly.

Loading next visibility...
Identifier
26729, 1989-006G
Orbit
HEO
Country
Flag of FRFR
Related business
Manufacturer
EADS/LV
Mission
Spacecraft
Bus & Motor
Unknown
Mass
Unknown
Launch date (UTC)
1989-01-27 (37 years ago)
Launch vehicle
Unknown
Launch site
French Guiana (FRGUI)
Object type
Payload
Rocket body
Debris
Shape & HBR
Unknown shape, 3.4 m
Radar Cross Section
Large (>1 m²)

Expand to show TLE details & history
Last TLE update: 3 days ago

TLE from 3 days ago
0 ARIANE 2 DEB
1 26729U 89006G   26101.81936544 -.00000097  00000-0  21677-3 0  9992
2 26729   8.6366 356.7502 7182246 232.2560  38.4154  2.31213089210811
Epoch: 2026-04-11T19:39Z
TLE epoch observation values (Epoch: 2026-04-11T19:39:53.174Z)
Latitude
0.00004°
Longitude
-138.37038°
Altitude
14,460.155 km
Speed
4.664 km/s
True Right ascension
23h 46m 32s
True Declination
0° 00' 00"
Sunlit
Object was in daylight at epoch
Visualization orbit readout
Latitude
Unknown
Longitude
Unknown
Altitude
Unknown
Speed
Unknown
Apparent Right ascension
Unknown
Apparent Declination
Unknown
Sunlit
N/A
Visualization observer readout
Local Sidereal Time
09:19:18
Azimuth
Unknown
Elevation
Unknown
Doppler factor
Unknown
Orbital elements
Apogee altitude
35,139.672 km
Perigee altitude
430.459 km
Semi-major axis
24,163.203 km
Eccentricity
0.71822
Inclination
8.6366°
RAAN
356.7502°
Arg. of periapsis
232.256°
True anomaly
127.49682°
Mean anomaly
38.4154°
Eccentric anomaly
78.78015°
Mean motion
0.57785 °/min
Orbital period
623 mins
BSTAR
0.00021677
Loading maneuver chart data...
Computing Atmospheric mass density...
Loading historical data...
Loading historical data...
Loading historical data...
Loading historical data...
Loading historical data...
Loading historical data...
Loading historical data...

Documentation

Showing up to 5 results
|